GW6121 Weather Reports


time (UTC)temp
C
wind
direction
speed
KPH
gust
KPH
rain 1hr
cm
rain 24hr
cm
rain mn
cm
humidity
%
barometer
mb
20260510063002 12 298 4.8 0.0 0.00 0.00 0.10 89 1009.7
20260510061635 11 326 3.2 0.0 0.00 0.00 0.10 89 1009.4
20260510060113 11 331 3.2 0.0 0.00 0.00 0.10 89 1009.7
20260510054557 11 294 3.2 0.0 0.00 0.00 0.10 89 1009.9
20260510053011 11 328 3.2 0.0 0.00 0.00 0.10 89 1009.8
20260510051640 11 344 1.6 0.0 0.00 0.00 0.10 89 1009.5
20260510050115 11 347 3.2 0.0 0.00 0.00 0.10 89 1009.5
20260510044602 11 338 3.2 0.0 0.00 0.00 0.08 89 1009.7
20260510043101 11 339 1.6 0.0 0.00 0.00 0.08 89 1009.8
20260510041507 11 343 1.6 0.0 0.00 0.00 0.08 89 1009.6
20260510040140 11 344 1.6 0.0 0.00 0.00 0.08 89 1009.7
20260510034626 11 344 3.2 0.0 0.00 0.00 0.08 89 1009.8
20260510033119 11 346 3.2 0.0 0.00 0.00 0.08 89 1009.8
20260510031612 11 360 0.0 0.0 0.00 0.00 0.08 89 1009.7
20260510030025 11 360 0.0 0.0 0.00 0.00 0.08 89 1009.9
20260510024600 12 360 0.0 0.0 0.00 0.00 0.08 89 1010.0
20260510023005 12 360 3.2 0.0 0.00 0.00 0.08 89 1010.0
20260510021638 12 313 0.0 0.0 0.00 0.00 0.08 89 1009.8
20260510020116 12 314 0.0 0.0 0.00 0.00 0.08 89 1009.7
20260510014529 12 314 0.0 0.0 0.00 0.00 0.08 89 1009.7
20260510013015 13 314 0.0 0.0 0.00 0.00 0.08 89 1009.8
20260510011511 13 314 0.0 0.0 0.00 0.00 0.08 89 1010.0
20260510010137 13 314 0.0 0.0 0.00 0.00 0.08 89 1010.2
20260510004619 13 314 0.0 0.0 0.00 0.00 0.08 89 1010.6
20260510003024 13 314 0.0 0.0 0.00 0.00 0.08 89 1010.8
20260510001515 13 314 1.6 0.0 0.00 0.00 0.08 89 1010.9
20260510000147 13 314 3.2 0.0 0.00 0.00 0.08 89 1011.3
20260509234637 13 309 3.2 0.0 0.00 0.00 0.08 89 1011.4
20260509233117 13 338 6.4 0.0 0.00 0.00 0.08 89 1011.7
20260509231607 13 321 4.8 0.0 0.00 0.00 0.05 89 1011.7
20260509230019 13 306 4.8 0.0 0.00 0.00 0.05 89 1011.8
20260509224503 13 273 6.4 0.0 0.00 0.00 0.05 89 1011.7
20260509223136 13 298 3.2 0.0 0.00 0.00 0.03 89 1011.7
20260509221629 13 305 4.8 0.0 0.00 0.00 0.03 89 1011.8
20260509220110 13 309 3.2 0.0 0.00 0.00 0.00 89 1011.7
20260509214556 13 284 1.6 0.0 0.00 0.00 1.73 89 1011.6
20260509213014 13 265 1.6 0.0 0.00 0.00 1.68 89 1011.7
20260509211504 13 256 1.6 0.0 0.00 0.00 1.63 89 1011.7
20260509210133 13 165 1.6 0.0 0.00 0.00 1.57 89 1011.7
20260509204623 13 267 3.2 0.0 0.00 0.00 1.50 89 1011.5
20260509203107 13 238 3.2 0.0 0.00 0.00 1.45 89 1011.1
20260509201558 13 290 4.8 0.0 0.00 0.00 1.42 89 1010.4
20260509200003 13 320 8.0 0.0 0.00 0.00 1.42 89 1010.1
20260509194502 13 333 6.4 0.0 0.00 0.00 1.42 89 1010.1
20260509193137 13 289 8.0 0.0 0.00 0.00 1.42 89 1009.4
20260509191622 13 355 12.9 0.0 0.00 0.00 1.42 89 1008.3
20260509190038 13 76 12.9 0.0 0.00 0.00 1.40 88 1008.1
20260509184526 13 74 8.0 0.0 0.00 0.00 1.30 87 1009.3
20260509183007 14 57 6.4 0.0 0.00 0.00 1.17 87 1010.0
20260509181639 15 63 6.4 0.0 0.00 0.00 0.99 87 1010.5
20260509180127 15 184 1.6 0.0 0.00 0.00 0.86 86 1010.8
20260509174605 15 185 1.6 0.0 0.00 0.00 0.71 85 1011.3
20260509173105 15 185 3.2 0.0 0.00 0.00 0.53 83 1011.0
20260509171617 16 192 1.6 0.0 0.00 0.00 0.33 84 1010.9
20260509170026 16 55 3.2 0.0 0.00 0.00 0.18 84 1011.0
20260509164505 17 38 1.6 0.0 0.00 0.00 0.05 83 1010.5
20260509163141 17 43 4.8 0.0 0.00 0.00 0.00 82 1010.3
20260509161626 17 36 4.8 0.0 0.00 0.00 0.00 81 1009.9
20260509160107 17 32 8.0 0.0 0.00 0.00 0.00 81 1009.5
20260509154558 17 35 8.0 0.0 0.00 0.00 0.00 80 1009.8
20260509153015 17 32 6.4 0.0 0.00 0.00 0.00 78 1010.1
20260509151552 17 360 6.4 0.0 0.00 0.00 0.00 78 1010.3
20260509150143 18 23 4.8 0.0 0.00 0.00 0.00 77 1010.8
20260509144631 18 19 6.4 0.0 0.00 0.00 0.00 77 1011.0
20260509143109 18 26 8.0 0.0 0.00 0.00 0.00 76 1010.8
20260509141527 18 22 8.0 0.0 0.00 0.00 0.00 75 1010.8
20260509140022 18 122 6.4 0.0 0.00 0.00 0.00 74 1010.4
20260509134643 18 127 9.7 0.0 0.00 0.00 0.00 74 1010.5
20260509133124 18 118 11.3 0.0 0.00 0.00 0.00 73 1011.0
20260509131636 19 109 11.3 0.0 0.00 0.00 0.00 70 1011.1
20260509130011 19 169 9.7 0.0 0.00 0.00 0.00 69 1011.3
20260509124642 18 120 11.3 0.0 0.00 0.00 0.00 69 1011.3
20260509123128 18 133 9.7 0.0 0.00 0.00 0.00 74 1011.6
20260509121625 18 161 9.7 0.0 0.00 0.00 0.00 75 1012.2
20260509120108 18 173 9.7 0.0 0.00 0.00 0.00 76 1012.3
20260509114610 18 149 11.3 0.0 0.00 0.00 0.00 74 1012.2
20260509113103 18 131 12.9 0.0 0.00 0.00 0.00 72 1012.0
20260509111514 19 134 12.9 0.0 0.00 0.00 0.00 73 1012.1
20260509110141 19 130 9.7 0.0 0.00 0.00 0.00 74 1012.5
20260509104634 18 145 9.7 0.0 0.00 0.00 0.00 76 1012.3
20260509103107 18 46 11.3 0.0 0.00 0.00 0.00 78 1012.7
20260509101520 18 29 8.0 0.0 0.00 0.00 0.00 82 1012.6
20260509100138 18 148 9.7 0.0 0.00 0.00 0.00 78 1012.5
20260509094621 18 77 6.4 0.0 0.00 0.00 0.00 75 1012.3
20260509093104 18 97 6.4 0.0 0.00 0.00 0.00 78 1012.1
20260509091516 18 51 9.7 0.0 0.00 0.00 0.00 79 1012.0
20260509090140 18 30 8.0 0.0 0.00 0.00 0.00 82 1011.9
20260509084620 17 19 6.4 0.0 0.00 0.00 0.00 83 1012.3
20260509083015 17 21 6.4 0.0 0.00 0.00 0.00 83 1012.6
20260509081502 17 31 6.4 0.0 0.00 0.00 0.00 85 1012.5
20260509080134 17 38 4.8 0.0 0.00 0.00 0.00 86 1012.6
20260509074627 16 24 1.6 0.0 0.00 0.00 0.00 87 1012.6
20260509073103 16 25 1.6 0.0 0.00 0.00 0.00 88 1012.7
20260509071603 15 45 1.6 0.0 0.00 0.00 0.00 88 1012.7
20260509070148 15 76 0.0 0.0 0.00 0.00 0.00 88 1012.8
20260509064628 14 39 1.6 0.0 0.00 0.00 0.00 88 1012.8